Simultaneous Nadir Overpasses (SNOs) Predictions

Prediction of SNOs between GOES-14 and NOAA-20 Satellite Orbit:

Table of predicted SNOs for the next 14.0 days since TLE Epoch: 7/31/2020
Index Date Time (GOES-14) GOES-14 Lat,Lon NOAA-20 Lat,Lon Distance(km) Time Diff (sec)
1 08/01/2020 08:39:05 -0.39,-104.37 0.45,-108.17 432.87 80
2 08/02/2020 08:20:19 -0.37,-104.37 -0.55,-103.64 84.12 80
3 08/04/2020 20:23:30 0.39,-104.57 0.41,-104.42 17.83 80
4 08/07/2020 08:26:32 -0.40,-104.42 -0.25,-105.15 83.53 80
5 08/08/2020 08:05:06 -0.39,-104.42 -1.24,-100.62 433.90 80
6 08/09/2020 20:27:03 0.42,-104.61 0.11,-105.93 150.37 80
7 08/10/2020 20:10:57 0.41,-104.62 1.10,-101.39 367.80 80
8 08/12/2020 08:32:45 -0.43,-104.47 0.05,-106.66 250.10 80
9 08/13/2020 08:11:19 -0.42,-104.47 -0.94,-102.13 266.98 80
